Content
SEND FEEDBACK

Daily
Averages
Monthly
Summary
United States of America

CAPUTA, SOUTH DAKOTA


Home > North America > United States > South Dakota
Elevation: 3149 feet     Latitude: 44 03N     Longitude: 103 04W

WEATHER
 
SELECT A DAY
Number of Records: 200,329;   Date Range: 1/1/95 - 7/29/14
 
SHARE

PRINT THIS DATA

[ ← Previous Day ]
WEATHER ALMANAC - SEPTEMBER 21, 2013
[ Next Day → ]
[ °C ]   °F
Weather ElementAverageHighLow
Temperature66.2 °F91 °F (2:52 pm)41 °F (3:52 am)
Dewpoint32.9 °F37.9 °F (10:52 am)23 °F (4:52 pm)
Humidity37.7 %76 % (4:52 am)8 % (4:52 pm)
Barometer29.72 in29.91 in (1:52 am)29.58 in (11:52 pm)
Wind Speed5.6 mph11.5 mph (10:52 am)
Weather ElementAverage
Visibility10 mi
Wind DirectionSSE (151.3 °)

Weather ElementTotal
Precipitation---
Cooling Degree Days1 (Base 65)
Growing Degree Days16 (Base 50)
Averaged from 23 records on September 21, 2013
WEATHER CONDITIONS BREAKOUT
WIND DIRECTION BREAKOUT
WEATHER BY HOUR - SEPTEMBER 21, 2013
[ °C ]   °F
Local TimeTemperatureDewpointHumidityBarometerVisibilityWind DirectionWind SpeedGust SpeedPrecipitationEventsConditions
1:52 AM44.1 °F33.1 °F65 %29.91 in10.0 miCalmClear
2:52 AM44.1 °F33.1 °F65 %29.88 in10.0 miCalmClear
3:52 AM41.0 °F33.1 °F73 %29.86 in10.0 miSE (140°)4.6 mphClear
4:52 AM41.0 °F34.0 °F76 %29.84 in10.0 miSE (140°)5.8 mphClear
5:52 AM41.0 °F33.1 °F73 %29.83 in10.0 miESE (120°)4.6 mphClear
6:52 AM41.0 °F33.1 °F73 %29.83 in10.0 miSE (130°)5.8 mphClear
7:52 AM48.9 °F36.0 °F61 %29.82 in10.0 miSE (130°)6.9 mphClear
8:52 AM59.0 °F36.0 °F42 %29.80 in10.0 miSE (140°)6.9 mphClear
9:52 AM66.9 °F37.0 °F33 %29.78 in10.0 miSE (130°)6.9 mphClear
10:52 AM78.1 °F37.9 °F24 %29.75 in10.0 miSE (140°)11.5 mphClear
11:52 AM84.0 °F34.0 °F17 %29.71 in10.0 miSouth (170°)8.1 mphClear
12:52 PM87.1 °F32.0 °F14 %29.68 in10.0 miSSE (160°)6.9 mphClear
1:52 PM89.1 °F27.0 °F11 %29.66 in10.0 miVariable4.6 mphClear
2:52 PM91.0 °F27.0 °F10 %29.63 in10.0 miCalmClear
3:52 PM91.0 °F26.1 °F10 %29.62 in10.0 miSSE (160°)3.5 mphClear
4:52 PM91.0 °F23.0 °F8 %29.61 in10.0 miWest (280°)3.5 mphClear
5:52 PM88.0 °F28.0 °F12 %29.61 in10.0 miNE (40°)5.8 mphClear
6:52 PM73.9 °F37.9 °F27 %29.64 in10.0 miNW (310°)8.1 mphClear
7:52 PM68.0 °F37.0 °F32 %29.64 in10.0 miNNW (330°)6.9 mphClear
8:52 PM70.0 °F33.1 °F26 %29.60 in10.0 miNNE (30°)10.4 mphClear
9:52 PM64.0 °F33.1 °F31 %29.60 in10.0 miNNW (330°)3.5 mphClear
10:52 PM62.1 °F36.0 °F38 %29.59 in10.0 miWNW (300°)9.2 mphClear
11:52 PM57.9 °F37.0 °F46 %29.58 in10.0 miWNW (300°)5.8 mphClear
Hourly data recorded from KRAP, located miles away from Caputa, South Dakota







STORIES FROM OUR PARTNERS